When you browse on this site, cookies collect data to enhance your experience and personalize the content and advertising you see.
Visit our Privacy Policy to learn more. By continuing to use the site, you agree to this use of cookies and data.
  • In Latvia
  • List of Countries
  • For 7 days
  • Water Temperature
  • Satellite Maps
  • Weather Map
  • Weather Widgets
  • user-avatar
    Login

    Hourly Weather Kandahar

    Today, 18 April, Thursday

    Time Temperature Precipitation Wind Pressure Humidity
    00:00 +21°C° 0 mm 1 mps 675 mmHg 42%
    01:00 +21°C° 0 mm 1 mps 675 mmHg 43%
    02:00 +20°C° 0 mm 1 mps 675 mmHg 45%
    03:00 +20°C° 0 mm 1 mps 675 mmHg 46%
    04:00 +20°C° 0 mm 1 mps 675 mmHg 47%
    05:00 +20°C° 0 mm 1 mps 675 mmHg 45%
    06:00 +21°C° 0 mm 1 mps 676 mmHg 42%
    07:00 +22°C° 0 mm 1 mps 676 mmHg 39%
    08:00 +23°C° 0 mm 1 mps 677 mmHg 37%
    09:00 +24°C° 0 mm 2 mps 677 mmHg 35%
    10:00 +25°C° 0 mm 2 mps 677 mmHg 32%
    11:00 +26°C° 0 mm 3 mps 677 mmHg 29%
    12:00 +27°C° 0 mm 3 mps 677 mmHg 26%
    13:00 +28°C° 0 mm 4 mps 677 mmHg 24%
    14:00 +28°C° 0 mm 4 mps 677 mmHg 22%
    15:00 +29°C° 0 mm 4 mps 676 mmHg 21%
    16:00 +29°C° 0 mm 5 mps 676 mmHg 20%
    17:00 +28°C° 0 mm 4 mps 676 mmHg 22%
    18:00 +27°C° 0 mm 4 mps 676 mmHg 24%
    19:00 +26°C° 0 mm 4 mps 676 mmHg 26%
    20:00 +26°C° 0 mm 3 mps 676 mmHg 27%
    21:00 +25°C° 0 mm 2 mps 676 mmHg 29%
    22:00 +25°C° 0 mm 2 mps 676 mmHg 30%
    23:00 +24°C° 0 mm 1 mps 676 mmHg 32%

    Tomorrow, 19 April, Friday

    Time Temperature Precipitation Wind Pressure Humidity
    00:00 +23°C° 0 mm 1 mps 675 mmHg 34%
    01:00 +23°C° 0 mm 1 mps 675 mmHg 36%
    02:00 +22°C° 0 mm 1 mps 675 mmHg 37%
    03:00 +22°C° 0 mm 1 mps 675 mmHg 37%
    04:00 +19°C° 0 mm 0 mps 674 mmHg 38%
    05:00 +22°C° 0 mm 1 mps 675 mmHg 35%
    06:00 +23°C° 0 mm 1 mps 675 mmHg 31%
    07:00 +24°C° 0 mm 1 mps 676 mmHg 28%
    08:00 +25°C° 0 mm 1 mps 676 mmHg 25%
    09:00 +27°C° 0 mm 2 mps 676 mmHg 22%
    10:00 +28°C° 0 mm 2 mps 676 mmHg 19%
    11:00 +29°C° 0 mm 3 mps 676 mmHg 18%
    12:00 +30°C° 0 mm 3 mps 676 mmHg 16%
    13:00 +33°C° 0 mm 4 mps 676 mmHg 14%
    14:00 +33°C° 0 mm 4 mps 675 mmHg 13%
    15:00 +33°C° 0 mm 4 mps 675 mmHg 13%
    16:00 +33°C° 0 mm 5 mps 675 mmHg 12%
    17:00 +32°C° 0 mm 4 mps 675 mmHg 14%
    18:00 +30°C° 0 mm 4 mps 675 mmHg 16%
    19:00 +29°C° 0 mm 3 mps 675 mmHg 17%
    20:00 +28°C° 0 mm 3 mps 675 mmHg 19%
    21:00 +27°C° 0 mm 2 mps 675 mmHg 20%
    22:00 +27°C° 0 mm 1 mps 675 mmHg 22%
    23:00 +26°C° 0 mm 1 mps 674 mmHg 23%

    Day after tomorrow, 20 April, Saturday

    Time Temperature Precipitation Wind Pressure Humidity
    00:00 +25°C° 0 mm 1 mps 674 mmHg 24%
    01:00 +23°C° 0 mm 0 mps 673 mmHg 26%
    02:00 +22°C° 0 mm 0 mps 673 mmHg 26%
    03:00 +24°C° 0 mm 1 mps 673 mmHg 26%
    04:00 +23°C° 0 mm 1 mps 672 mmHg 26%
    05:00 +24°C° 0 mm 1 mps 673 mmHg 24%
    06:00 +25°C° 0 mm 1 mps 673 mmHg 21%
    07:00 +26°C° 0 mm 1 mps 674 mmHg 18%
    08:00 +28°C° 0 mm 1 mps 674 mmHg 17%
    09:00 +29°C° 0 mm 1 mps 674 mmHg 15%
    10:00 +30°C° 0 mm 2 mps 675 mmHg 13%
    11:00 +31°C° 0 mm 2 mps 675 mmHg 12%
    12:00 +33°C° 0 mm 3 mps 674 mmHg 11%
    13:00 +34°C° 0 mm 3 mps 674 mmHg 11%
    14:00 +35°C° 0 mm 4 mps 674 mmHg 11%
    15:00 +35°C° 0 mm 4 mps 673 mmHg 11%
    16:00 +35°C° 0 mm 4 mps 673 mmHg 11%
    17:00 +34°C° 0 mm 4 mps 673 mmHg 13%
    18:00 +33°C° 0 mm 4 mps 673 mmHg 15%
    19:00 +31°C° 0 mm 3 mps 673 mmHg 17%
    20:00 +30°C° 0 mm 2 mps 673 mmHg 19%
    21:00 +29°C° 0 mm 1 mps 673 mmHg 21%
    22:00 +28°C° 0 mm 1 mps 673 mmHg 24%
    23:00 +27°C° 0 mm 1 mps 673 mmHg 24%

    21 April, Sunday

    Time Temperature Precipitation Wind Pressure Humidity
    00:00 +27°C° 0 mm 1 mps 673 mmHg 24%
    01:00 +26°C° 0 mm 1 mps 672 mmHg 25%
    02:00 +25°C° 0 mm 1 mps 672 mmHg 25%
    03:00 +25°C° 0 mm 1 mps 672 mmHg 26%
    04:00 +24°C° 0 mm 1 mps 672 mmHg 27%
    05:00 +25°C° 0 mm 1 mps 672 mmHg 24%
    06:00 +26°C° 0 mm 2 mps 673 mmHg 22%
    07:00 +28°C° 0 mm 2 mps 674 mmHg 20%
    08:00 +29°C° 0 mm 2 mps 674 mmHg 18%
    09:00 +31°C° 0 mm 2 mps 674 mmHg 16%
    10:00 +32°C° 0 mm 2 mps 675 mmHg 14%
    11:00 +34°C° 0 mm 3 mps 674 mmHg 13%
    12:00 +35°C° 0 mm 3 mps 674 mmHg 12%
    13:00 +36°C° 0 mm 3 mps 674 mmHg 11%
    14:00 +36°C° 0 mm 3 mps 673 mmHg 11%
    15:00 +36°C° 0 mm 4 mps 673 mmHg 11%
    16:00 +36°C° 0 mm 4 mps 673 mmHg 11%
    17:00 +35°C° 0 mm 3 mps 673 mmHg 13%
    18:00 +34°C° 0 mm 3 mps 673 mmHg 15%
    19:00 +32°C° 0 mm 2 mps 673 mmHg 17%
    20:00 +31°C° 0 mm 2 mps 673 mmHg 20%
    21:00 +30°C° 0 mm 2 mps 673 mmHg 22%
    22:00 +29°C° 0 mm 2 mps 673 mmHg 25%
    23:00 +28°C° 0 mm 2 mps 673 mmHg 27%

    22 April, Monday

    Time Temperature Precipitation Wind Pressure Humidity
    00:00 +27°C° 0 mm 1 mps 673 mmHg 29%
    01:00 +27°C° 0 mm 1 mps 672 mmHg 30%
    02:00 +26°C° 0 mm 1 mps 672 mmHg 32%
    03:00 +25°C° 0 mm 1 mps 672 mmHg 33%
    04:00 +22°C° 0 mm 0 mps 672 mmHg 35%
    05:00 +25°C° 0 mm 1 mps 673 mmHg 32%
    06:00 +27°C° 0 mm 1 mps 673 mmHg 29%
    07:00 +28°C° 0 mm 1 mps 674 mmHg 25%
    08:00 +29°C° 0 mm 1 mps 674 mmHg 23%
    09:00 +30°C° 0 mm 2 mps 675 mmHg 20%
    10:00 +32°C° 0 mm 2 mps 675 mmHg 17%
    11:00 +34°C° 0 mm 2 mps 675 mmHg 15%
    12:00 +35°C° 0 mm 2 mps 675 mmHg 13%
    13:00 +35°C° 0 mm 3 mps 674 mmHg 11%
    14:00 +36°C° 0 mm 3 mps 674 mmHg 10%
    15:00 +36°C° 0 mm 3 mps 674 mmHg 10%
    16:00 +36°C° 0 mm 3 mps 673 mmHg 9%
    17:00 +35°C° 0 mm 3 mps 674 mmHg 11%
    18:00 +34°C° 0 mm 3 mps 674 mmHg 12%
    19:00 +32°C° 0 mm 2 mps 674 mmHg 13%
    20:00 +31°C° 0 mm 1 mps 674 mmHg 15%
    21:00 +30°C° 0 mm 1 mps 674 mmHg 18%
    22:00 +27°C° 0 mm 0 mps 674 mmHg 20%
    23:00 +27°C° 0 mm 0 mps 673 mmHg 20%

    23 April, Tuesday

    Time Temperature Precipitation Wind Pressure Humidity
    00:00 +27°C° 0 mm 0 mps 673 mmHg 20%
    01:00 +27°C° 0 mm 0 mps 673 mmHg 20%
    02:00 +29°C° 0 mm 1 mps 673 mmHg 20%
    03:00 +28°C° 0 mm 1 mps 673 mmHg 20%
    04:00 +28°C° 0 mm 1 mps 673 mmHg 20%
    05:00 +28°C° 0 mm 1 mps 674 mmHg 20%
    06:00 +29°C° 0 mm 2 mps 674 mmHg 20%
    07:00 +29°C° 0 mm 2 mps 675 mmHg 20%
    08:00 +30°C° 0 mm 2 mps 675 mmHg 18%
    09:00 +32°C° 0 mm 2 mps 675 mmHg 17%
    10:00 +34°C° 0 mm 2 mps 675 mmHg 15%
    11:00 +35°C° 0 mm 3 mps 675 mmHg 15%
    12:00 +36°C° 0 mm 4 mps 674 mmHg 14%
    13:00 +37°C° 0 mm 5 mps 674 mmHg 13%
    14:00 +36°C° 0 mm 6 mps 673 mmHg 14%
    15:00 +37°C° 0 mm 8 mps 673 mmHg 15%
    16:00 +35°C° 0 mm 9 mps 672 mmHg 16%
    17:00 +34°C° 0.2 mm 7 mps 672 mmHg 19%
    18:00 +33°C° 0.2 mm 6 mps 672 mmHg 22%
    19:00 +30°C° 0.2 mm 4 mps 672 mmHg 24%
    20:00 +30°C° 0.1 mm 4 mps 672 mmHg 27%
    21:00 +29°C° 0.1 mm 5 mps 673 mmHg 29%
    22:00 +28°C° 0.1 mm 5 mps 673 mmHg 31%
    23:00 +28°C° 0 mm 5 mps 672 mmHg 33%
    Show more